Flag for Russia Weather past 2 weeks in Murmansk, Russia

Now
41 °F

Passing clouds.


Feels Like: 41 °F
Forecast: 49 / 59 °F
Wind: No wind

Location: Murmansk Airport

Current Time: Sep 5, 2015 at 7:24:08 AM

Latest Report: Sep 5, 2015 at 7:00 AM


Visibility: N/A

Pressure: 29.71 "Hg

Humidity: 93%

Dew point: 39 °F

Location of MurmanskLocation

Historic Weather in Murmansk — Graph

°F

Murmansk temperature yesterday

Maximum temperature yesterday: 52 °F (at 1:00 PM)
Minimum temperature yesterday: 41 °F (at 10:00 PM)
Average temperature yesterday: 47 °F

Past Weeks' High & Low Weather Summary

 TemperatureHumidityPressure
High77 °F (Aug 21, 2:30 PM)94% (Aug 21, 6:30 AM)30.33 "Hg (Aug 21, 6:30 AM)
Low30 °F (Sep 3, 1:30 AM)39% (Aug 21, 2:00 PM)29.62 "Hg (Sep 4, 5:00 AM)
Average50 °F77%29.98 "Hg
* Reported Aug 21 6:00 AM — Sep 5 6:00 AM, Murmansk, Weather by CustomWeather, © 2015

Note: Actual official high and low records may vary slightly from our data, if they occured in-between our weather recording intervals... More about our weather records

Advertising

Murmansk weather history for previous 24 hours

 ConditionsComfort  
Time TempWeatherWind HumidityBarometerVisibility
6:00 AM
Sat, Sep 5
39 °FPassing clouds.1 mph93%29.71 "HgN/A
5:30 AM39 °FPassing clouds.1 mph93%29.71 "HgN/A
5:00 AM39 °FPassing clouds.1 mph93%29.71 "HgN/A
4:30 AM39 °FPassing clouds.1 mph93%29.71 "HgN/A
4:00 AM41 °FPassing clouds.1 mph93%29.71 "HgN/A
3:30 AM41 °FPassing clouds.1 mph93%29.68 "HgN/A
3:00 AM41 °FPassing clouds.No wind93%29.71 "HgN/A
2:30 AM41 °FPassing clouds.1 mph93%29.71 "HgN/A
2:00 AM41 °FPassing clouds.1 mph93%29.71 "HgN/A
1:30 AM41 °FPassing clouds.1 mph93%29.68 "HgN/A
1:00 AM41 °FPassing clouds.1 mph93%29.68 "HgN/A
12:00 AM41 °FPassing clouds.1 mph93%29.68 "HgN/A
11:30 PM
Fri, Sep 4
41 °FPassing clouds.No wind93%29.68 "HgN/A
11:00 PM41 °FPassing clouds.No wind93%29.68 "HgN/A
10:30 PM41 °FPassing clouds.1 mph87%29.68 "HgN/A
10:00 PM41 °FPassing clouds.1 mph93%29.68 "HgN/A
9:30 PM43 °FPassing clouds.1 mph87%29.68 "HgN/A
9:00 PM45 °FScattered clouds.1 mph87%29.68 "HgN/A
8:30 PM43 °FScattered clouds.3 mph87%29.68 "HgN/A
8:00 PM45 °FScattered clouds.1 mph87%29.68 "HgN/A
7:30 PM46 °FScattered clouds.1 mph87%29.68 "HgN/A
7:00 PM48 °FPartly sunny.1 mph87%29.68 "HgN/A
6:30 PM50 °FPartly sunny.No wind76%29.68 "HgN/A
6:00 PM48 °FSprinkles. Partly sunny.1 mph87%29.68 "HgN/A
5:30 PM50 °FSprinkles. Partly sunny.1 mph76%29.68 "HgN/A
5:00 PM50 °FSprinkles. Partly sunny.1 mph71%29.68 "HgN/A
4:30 PM50 °FSprinkles. Partly sunny.1 mph76%29.68 "HgN/A
4:00 PM50 °FPartly sunny.3 mph67%29.68 "HgN/A
3:30 PM52 °FPartly sunny.3 mph58%29.68 "HgN/A
3:00 PM52 °FPartly sunny.3 mph54%29.68 "HgN/A
2:00 PM52 °FPartly sunny.3 mph58%29.68 "HgN/A
1:30 PM52 °FPartly sunny.3 mph58%29.68 "HgN/A
1:00 PM52 °FPartly sunny.6 mph62%29.68 "HgN/A
12:30 PM50 °FPartly sunny.6 mph67%29.68 "HgN/A
12:00 PM50 °FPartly sunny.6 mph67%29.68 "HgN/A
11:30 AM50 °FPartly sunny.6 mph67%29.65 "HgN/A
11:00 AM50 °FPartly sunny.6 mph67%29.65 "HgN/A
10:30 AM48 °FPartly sunny.6 mph71%29.65 "HgN/A
10:00 AM48 °FPartly sunny.6 mph71%29.65 "HgN/A
9:30 AM48 °FPartly sunny.6 mph71%29.65 "HgN/A
9:00 AM48 °FScattered clouds.6 mph71%29.65 "HgN/A
8:30 AM46 °FScattered clouds.6 mph76%29.62 "HgN/A
8:00 AM46 °FScattered clouds.3 mph82%29.62 "HgN/A
7:30 AM46 °FScattered clouds.3 mph76%29.62 "HgN/A
7:00 AM46 °FScattered clouds.6 mph76%29.62 "HgN/A
Weather by CustomWeather, © 2015

See weather overviewHow to use our weather pages